Torna al catalogo

STARLINK-35923

AttivoComunicazioniVLEO
NORAD 66641·PAYLOAD·🇺🇸 United States

Lanciato Nov 23, 2025 da Vandenberg Space Force Base

Loading…

Prossimi Passaggi (prossime 24 ore)

TLE

AggiornatoSource: CelesTrak SupGP

Epoca: Sep 15, 2026, 03:43 UTC

1 66641C 25271AA  26258.15534722  .00069359  00000+0  20487-2 0  2584
2 66641  53.1595 338.6091 0001218  89.5614 236.6655 15.34364011    10

Traccia STARLINK-35923 in tempo reale con AllMySat

Download on the App Store